Location: Homewood
(41.1836°S, 175.9581°E)
Time: 10:18:00
(UTC+00:00)

CZ-2D R/B - Visible Passes

Search period start: 22 July 2024 00:00
Search period end: 01 August 2024 00:00
Orbit: 478 x 490 km, 97.4° (Epoch: 21 July)

Date Brightness Start Highest point End Pass type
(mag) Time Alt. Az. Time Alt. Az. Time Alt. Az.
22 Jul 3.2 06:08:59 10° S 06:12:40 82° WSW 06:16:16 10° NNW visible
22 Jul 6.1 16:44:38 10° NE 16:44:53 11° NE 16:44:53 11° NE visible
23 Jul 3.4 05:44:38 10° SSE 05:48:10 45° E 05:51:39 10° N visible
23 Jul 6.2 07:19:47 10° SW 07:21:10 12° WSW 07:22:33 10° W visible
23 Jul 5.2 17:53:47 10° NNW 17:54:34 15° NNW 17:54:34 15° NNW visible
24 Jul 5.6 06:54:01 10° SSW 06:56:54 22° WSW 06:59:44 10° WNW visible
24 Jul 5.1 17:28:45 10° N 17:29:53 19° N 17:29:53 19° N visible
25 Jul 4.3 06:29:01 10° S 06:32:31 43° WSW 06:35:56 10° NW visible
25 Jul 5.5 17:04:11 10° NNE 17:05:10 18° NNE 17:05:10 18° NNE visible
26 Jul 3.0 06:04:19 10° SSE 06:08:00 86° ENE 06:11:36 10° NNW visible
26 Jul 6.1 16:40:04 10° NE 16:40:24 12° NE 16:40:24 12° NE visible
26 Jul 5.4 18:14:31 10° NW 18:14:45 11° NW 18:14:45 11° NW visible
27 Jul 6.2 07:14:36 10° SW 07:16:25 13° WSW 07:18:13 10° W visible
27 Jul 5.0 17:48:47 10° NNW 17:49:58 18° NNW 17:49:58 18° NNW visible
28 Jul 5.4 06:48:58 10° SSW 06:52:00 25° WSW 06:54:59 10° NW visible
28 Jul 4.9 17:23:43 10° N 17:25:10 23° N 17:25:10 23° N visible
29 Jul 4.0 06:23:54 10° S 06:27:27 50° WSW 06:30:57 10° NNW visible
29 Jul 5.3 16:59:07 10° NNE 17:00:21 20° NNE 17:00:21 20° NNE visible
30 Jul 3.0 05:59:08 10° SSE 06:02:47 73° ENE 06:06:23 10° N visible
30 Jul 6.1 16:34:58 10° NE 16:35:29 13° NE 16:35:29 13° NE visible
30 Jul 5.1 18:08:56 10° NW 18:09:50 14° NW 18:09:50 14° NW visible
31 Jul 6.1 07:08:56 10° SSW 07:11:07 15° WSW 07:13:17 10° WNW visible
31 Jul 4.6 17:43:15 10° NNW 17:44:57 23° NNW 17:44:57 23° NNW visible
